www.pogodaiklimat.ru

ПОГОДА в Туэнтинайн-Палмсе, CA

  • Прогноз погоды в Туэнтинайн-Палмсе
  • Монитор погоды в Туэнтинайн-Палмсе
  • Климат в Туэнтинайн-Палмсе

АРХИВ ПОГОДЫ в Туэнтинайн-Палмсе

Время (UTC), дата Ветер
(напр.,м/с)
 
Видим.   Явления Облачность Т
(С)
Тd
(С)
f
(%)
Тe
(С)
Тes
(С)
Комфортность

P
(гПа)

Po
(гПа)
Тmin
(С)
Tmax
(С)
R
(мм)
SD
(см)
04:56 21.05 СЗ  16 км    ясно  +15.6  +2.2  40  +15  +15    1010.4  939.8  +15.0  +23.3     
05:56 21.05   16 км    ясно  +15.0  0.0  36  +15  +15    1010.2  939.8         
06:56 21.05 ЮЗ  16 км    ясно  +13.3  0.0  40  +12  +12    1010.3  939.8         
07:56 21.05 С  16 км    ясно  +13.9  0.0  38  +13  +13    1009.5  939.1         
08:56 21.05 СЗ  16 км    ясно  +13.3  -1.1  37  +13  +13    1009.4  939.1         
09:56 21.05 З  16 км    ясно  +12.2  -0.6  41  +11  +11    1008.8  938.5         
10:56 21.05 В  16 км    ясно  +12.2  +1.1  47  +11  +11    1008.7  938.5  +10.6  +15.6     
11:56 21.05   16 км    ясно  +11.7  +1.1  48  +12  +12    1008.6  938.2         
12:56 21.05 З  16 км    ясно  +13.3  +1.1  43  +12  +12    1008.8  938.5         
13:56 21.05 З  16 км    ясно  +15.6  +0.6  36  +15  +16    1008.5  938.2         
14:56 21.05 З  11  16 км    ясно  +17.8  0.0  30  +16  +16    1007.9  937.6         
15:56 21.05 СЗ  10  16 км    ясно  +18.9  +0.6  29  +18  +18    1007.5  937.3         
16:56 21.05 СЗ  10
{15} 
16 км    ясно  +19.4  +0.6  28  +18  +18    1007.5  937.3  +11.1  +20.0     
17:56 21.05 СЗ  11
{16} 
16 км    ясно  +20.6  +0.6  26  +20  +20    1006.7  936.6         
18:56 21.05 СЗ  11
{16} 
14 км    ясно  +21.7  +0.6  25  +21  +21  комфорт  1005.7  935.7         
19:56 21.05 З  11
{14} 
16 км    ясно  +22.2  0.0  23  +22  +22  комфорт  1004.4  934.7         
20:56 21.05 З  10
{16} 
16 км    ясно  +22.8  +0.6  23  +22  +22  комфорт  1003.9  934.1         
21:56 21.05 З  4
{10} 
16 км    10/0 2250 м
[средняя] 
+21.7  +2.8  29  +22  +24  комфорт  1003.5  933.5         
22:56 21.05 СЗ  11
{17} 
16 км    ясно  +21.1  +2.2  29  +21  +21  комфорт  981.2  933.5  +19.4  +23.3     
23:56 21.05 З  13
{18} 
16 км    ясно  +19.4  +2.8  33  +18  +18    1002.9  932.9         
00:56 22.05 З  7
{14} 
16 км    ясно  +17.2  +3.9  41  +16  +17    1003.3  933.2         
01:56 22.05 ЮЗ  6
{10} 
16 км    2/2 1500 м  +14.4  +4.4  51  +12  +13    1004.0  933.8         
02:56 22.05 З  7
{16} 
16 км    ясно  +15.0  +1.1  39  +13  +13    982.4  934.4         
03:56 22.05 З  8
{14} 
16 км    ясно  +13.9  +2.8  47  +11  +11    983.1  935.1         
04:56 22.05 СЗ  10  16 км    ясно  +14.4  +0.6  39  +12  +12    1004.6  934.7  +12.8  +21.1     
05:56 22.05 З  16 км    ясно  +12.8  +3.3  52  +10  +10    982.4  934.4         
06:56 22.05 ЮЗ  16 км    ясно  +11.7  +4.4  61  +10  +10    982.4  934.4         
07:56 22.05 Ю  16 км    ясно  +10.6  +3.3  61  +9  +9    982.0  934.1         
08:56 22.05 СЗ  16 км    ясно  +12.8  +0.6  43  +10  +10    1003.7  933.8         
09:56 22.05 З  10
{14} 
16 км    ясно  +12.8  -0.6  40  +10  +10    1003.5  933.5         
10:56 22.05 З  9
{11} 
16 км    2/0 2100 м
[средняя] 
+12.2  0.0  43  +9  +9    981.2  933.5  +10.6  +14.4     
11:56 22.05 СЗ  16 км    ясно  +11.7  0.0  44  +8  +8    1003.2  933.2         
12:56 22.05 СЗ  10
{13} 
16 км    8/0 2250 м
[средняя] 
+13.3  +0.6  42  +10  +10    1003.9  933.8         
13:56 22.05 СЗ  8
{11} 
16 км    ясно  +13.9  0.0  38  +12  +12    1004.8  934.4         
14:56 22.05 СЗ  9
{13} 
16 км    ясно  +15.6  0.0  34  +14  +14    1004.9  934.7         
15:56 22.05 СЗ  9
{13} 
16 км    ясно  +16.1  +0.6  35  +14  +14    1004.6  934.4         
16:56 22.05 СЗ  7
{11} 
16 км    ясно  +17.2  0.0  31  +16  +18    1004.4  934.4  +11.7  +17.8     
17:56 22.05 З  7
{11} 
16 км    5/2 1950 м
[средняя] 
+17.8  -1.1  28  +17  +19    1004.6  934.4         
18:07 22.05 З  16 км    5/5 1950 м  +16.7  -1.1  30  +15  +15      934.4         
18:56 22.05 З  3
{8} 
16 км    5/5 1350 м  +16.7  0.0  32  +17  +25    1004.6  934.4         
19:56 22.05 ЮЗ  6
{10} 
5 км  гроза с сильным дождем  10/10 1410 м  +11.7  +6.7  71  +9  +9    1006.1  935.4      3.0   
20:14 22.05 Ю  10 км  слабый дождь  10/10 1350 м  +11.7  +6.7  71  +10  +10      935.4         
20:56 22.05   6 км  дождь  10/10 1290 м  +11.7  +5.6  66  +11  +11    1006.2  935.7         
21:56 22.05 ЮЗ  11 км  слабый дождь  10/10 1410 м  +11.7  +6.7  71  +10  +10    1006.1  935.4         
22:56 22.05 ЮЗ  16 км    10/5 1650 м
[средняя] 
+12.8  +6.7  66  +10  +10    1005.6  935.1  +11.1  +18.3  7.9   
23:56 22.05 ЮЗ  16 км    5/5 1800 м  +13.9  +5.0  55  +12  +13    1005.8  935.4         
00:56 23.05 ЮЗ  16 км    8/8 1500 м  +13.3  +5.6  60  +11  +11    1005.6  935.1         
01:56 23.05 З  16 км    8/8 1650 м  +12.8  +6.1  64  +10  +10    1006.3  935.7         

 

Местоположение метеостанции Marine Corps Air-Ground Combat Center: широта 34.2944 долгота -116.1450 высота над уровнем моря 626 м.

В архиве по умолчанию представлена погода в Туэнтинайн-Палмсе за последние 1-2 суток. Обновление информации о фактической погоде в базе происходит ежечасно! Архивные данные за месяц целиком и за предыдущие месяцы Вы можете получить, выбрав интересующий диапазон дат из раскрывающегося списка и нажав кнопку "Ввод!".

Внимание! Архив погоды МЕТАР в базе сайта хранится не более 60 дней. Нет смысла пытаться выбрать более раннюю дату.

Внимание! Время в таблицах - всемирное. Для получения местного времени необходимо прибавить поправку, которая в Туэнтинайн-Палмсе равна -8 ч.

Ветер - указаны скорость ветра в м/с и направление, откуда дует ветер: С - северный, СВ - северо-восточный, В - восточный, ЮВ - юго-восточный, Ю - южный, ЮЗ - юго-западный, З - западный, СЗ - северо-западный.
Видимость - горизонтальная дальность видимости в метрах или километрах. При видимости от 1 до 10 км при отсутствии осадков обычно наблюдается дымка, при ухудшении видимости до 1 км и менее - туман. В сухую погоду видимость может ухудшаться дымом, пылью или мглою.
Атмосферные явления - указаны явления, наблюдавшиеся в указанный момент времени.
Облачность - указаны через наклонную черту верхняя и нижняя облачность в баллах и высота нижней границы облаков в метрах. Внимание: облачность, как и прочие метеорологические величины в США измеряются автоматическими метеостанциями. Указанные значения в баллах носят условный характер и показывают процент времени, в течение которого, в среднем, лазерный луч высотомера отражался от облаков обратно.
T - Температура воздуха - температура, измеренная на высоте 2 м над землей.
Td - Температура точки росы - температура, при понижении до которой содержащийся в воздухе водяной пар достигнет насыщения.
f - Относительная влажность воздуха - влажноcть воздуха, измеренная на высоте 2 м над землей.
Te - Эффективная температура - температура, которую ощущает одетый по сезону человек в тени. Характеристика душности погоды. При расчете учитывается влияние влажности воздуха и скорости ветра на теплоощущения человека.
Tes - Эффективная температура на солнце - температура, которую ощущает человек, с поправкой на солнечный нагрев. Характеристика знойности погоды. Зависит от высоты солнца над горизонтом, облачности и скорости ветра. Ночью, в пасмурную погоду, а также при ветре 12 м/с и более поправка равна нулю.
P - Атмосферное давление - приведенное к уровню моря атмосферное давление.
Po - Атмосферное давление - измеренное на уровне метеостанции атмосферное давление.
Tmin - Минимальная температура - минимум температуры воздуха на высоте 2 м над землей.
Tmax - Максимальная температура - максимум температуры воздуха на высоте 2 м над землей.
R - Количество осадков - Количество выпавших осадков за 3 или 6 часов, мм.
SD - Снежный покров - Высота снежного покрова, см.